Date,TemperatureHighF,TemperatureAvgF,TemperatureLowF,DewpointHighF,DewpointAvgF,DewpointLowF,HumidityHigh,HumidityAvg,HumidityLow,PressureMaxIn,PressureMinIn,WindSpeedMaxMPH,WindSpeedAvgMPH,GustSpeedMaxMPH,PrecipitationSumIn
2013-6-18,55,55,55,54,54,54,95,95,95,29.94,29.94,0,0,0,0.00
2013-6-19,57,57,57,54,54,54,90,90,90,29.92,29.92,2,2,0,0.00
2013-6-20,48,48,48,47,47,47,94,94,94,30.20,30.20,1,1,0,0.00
2013-6-23,58,58,58,56,56,56,94,94,94,30.20,30.20,1,1,0,0.00
2013-6-24,71,71,71,68,68,68,92,92,92,0.00,40.00,1,1,0,0.00
2013-6-26,86,86,86,71,71,71,60,60,60,0.00,40.00,4,4,0,0.00
2013-6-27,69,69,69,68,68,68,96,96,96,29.84,29.84,0,0,0,0.00
2013-6-28,71,70,70,70,69,69,96,96,95,29.67,29.60,4,4,0,0.00
2013-6-29,69,69,69,68,68,68,96,96,96,29.57,29.57,1,1,0,0.00
2013-6-30,69,69,69,68,68,68,95,95,95,29.81,29.81,1,1,0,0.00
2013-7-1,70,70,70,69,69,69,96,96,96,30.01,30.01,2,2,0,0.00
2013-7-2,71,71,71,70,70,70,96,96,96,30.16,30.16,2,2,0,0.00
2013-7-3,69,69,69,68,68,68,95,95,95,30.24,30.24,1,1,0,0.00
2013-7-4,74,74,74,71,71,71,93,93,93,30.26,30.26,1,1,0,0.00
2013-7-5,72,72,72,70,70,70,93,93,93,30.23,30.23,1,1,0,0.00
2013-7-13,66,66,66,63,63,63,91,91,91,30.24,30.24,1,1,0,0.00
2013-7-15,83,76,71,75,72,69,96,87,75,30.25,30.25,1,0,0,0.00
2013-7-16,82,82,82,72,72,72,71,71,71,0.00,40.00,1,1,0,0.00
2013-7-17,90,82,68,74,72,66,95,73,60,30.20,30.20,4,1,0,0.00
2013-7-18,95,84,69,75,72,67,94,68,48,30.07,30.02,2,1,0,0.00
2013-7-19,94,84,71,79,76,70,95,77,61,29.99,29.99,5,2,0,0.00
2013-7-20,83,78,74,76,74,72,96,87,78,29.80,29.80,4,2,0,0.00
2013-7-21,79,72,66,70,68,65,95,87,72,29.90,29.87,1,1,0,0.00
2013-7-22,74,74,74,69,69,69,83,83,83,0.00,40.00,1,1,0,0.00
2013-7-23,84,83,82,75,74,74,78,76,73,29.66,29.64,7,6,0,0.00
2013-7-24,84,82,81,72,72,71,72,69,64,0.00,40.00,3,2,0,0.00
2013-7-25,65,63,61,59,55,52,89,77,69,30.09,29.99,3,2,0,0.00
2013-7-26,67,63,60,63,60,58,93,90,86,30.01,30.01,3,2,0,0.00
2013-7-27,80,70,61,67,64,60,96,82,63,30.07,30.07,5,2,0,0.00
2013-7-28,69,69,69,67,67,67,93,93,93,30.03,30.01,1,1,0,0.00
2013-7-29,76,71,67,71,68,66,95,91,83,30.06,30.05,1,0,0,0.00
2013-7-30,60,60,60,58,58,58,95,95,95,30.10,30.10,1,1,0,0.00
2013-8-1,71,68,57,65,62,55,94,84,80,30.06,30.06,2,2,0,0.00
2013-8-2,68,66,64,66,64,63,95,94,93,29.88,29.85,1,0,0,0.00
2013-8-3,60,60,60,58,58,58,95,95,95,29.89,29.89,1,1,0,0.00
2013-8-4,56,56,56,55,55,55,95,95,95,29.87,29.87,0,0,0,0.00
2013-8-6,47,47,47,45,45,45,93,93,93,30.08,30.08,1,1,0,0.00
2013-8-8,66,65,64,63,62,61,90,90,90,30.13,30.13,1,1,0,0.00
2013-8-10,75,75,75,65,65,65,70,70,70,29.99,29.99,2,2,0,0.00
2013-8-12,66,64,61,63,62,60,95,93,91,0.00,40.00,0,0,0,0.00
2013-8-13,70,63,59,67,61,58,96,95,91,0.00,40.00,1,0,0,0.00
2013-8-14,72,65,60,60,54,51,95,68,51,0.00,40.00,7,3,0,0.00
2013-8-15,76,59,48,58,43,-100,94,69,44,0.00,40.00,4,1,0,0.00
2013-8-16,78,66,49,58,53,47,94,68,44,0.00,40.00,3,1,0,0.00
2013-8-17,82,68,50,61,52,-100,94,63,42,0.00,40.00,1,0,0,0.00
2013-8-18,78,65,53,63,58,52,94,82,56,0.00,40.00,1,0,0,0.00
2013-8-19,79,67,54,64,61,53,95,81,58,0.00,40.00,4,1,0,0.00
2013-8-20,76,69,63,65,63,61,94,83,64,0.00,40.00,2,1,0,0.00
2013-8-21,87,79,57,67,64,56,95,64,45,0.00,40.00,3,1,0,0.00
2013-8-22,74,70,62,71,68,61,96,93,90,0.00,40.00,3,1,0,0.00
2013-8-23,80,75,63,65,63,61,93,67,54,0.00,40.00,3,2,0,0.00
2013-8-24,77,63,53,58,53,50,95,73,41,0.00,40.00,2,1,0,0.00
2013-8-25,81,66,46,61,53,44,94,68,36,0.00,40.00,2,1,0,0.00
2013-8-26,75,69,61,66,64,58,94,84,70,0.00,40.00,4,1,0,0.00
2013-8-27,79,71,68,71,68,66,96,91,77,0.00,40.00,2,1,0,0.00
2013-8-28,86,76,66,72,68,64,95,79,62,0.00,40.00,1,0,0,0.00
2013-8-29,70,66,62,65,63,59,92,87,83,0.00,40.00,3,2,0,0.00
2013-8-30,79,66,60,70,63,57,95,89,73,0.00,40.00,1,1,0,0.00
2013-8-31,75,72,65,71,69,64,96,90,86,0.00,40.00,2,1,0,0.00
2013-9-1,80,76,71,74,72,69,93,88,82,0.00,40.00,4,3,0,0.00
2013-9-2,75,75,75,73,73,73,92,92,92,0.00,40.00,1,1,0,0.00
2013-9-3,69,65,62,67,64,61,96,95,93,0.00,40.00,1,1,0,0.00
2013-9-4,78,69,55,63,60,54,96,74,54,0.00,40.00,4,2,0,0.00
2013-9-5,73,63,53,61,58,51,96,83,65,0.00,40.00,3,1,0,0.00
2013-9-6,69,57,44,48,45,42,94,68,44,0.00,40.00,2,1,0,0.00
2013-9-7,74,54,39,56,42,-100,93,74,46,0.00,40.00,5,1,0,0.00
2013-9-8,76,65,53,62,52,43,95,66,39,0.00,40.00,6,2,0,0.00
2013-9-9,66,54,41,51,43,39,91,69,44,0.00,40.00,1,1,0,0.00
2013-9-10,71,62,52,68,59,50,95,92,88,0.00,40.00,3,1,0,0.00
2013-9-11,92,82,65,79,74,64,96,78,63,0.00,40.00,4,2,0,0.00
2013-9-12,79,75,70,72,71,69,96,88,79,0.00,40.00,6,4,0,0.00
2013-9-13,70,69,68,67,67,67,96,94,91,0.00,40.00,0,0,0,0.00
2013-9-14,54,54,54,51,51,51,92,92,92,0.00,40.00,0,0,0,0.00
2013-9-15,43,43,43,42,42,42,94,94,94,0.00,40.00,1,1,0,0.00
2013-9-16,49,49,49,48,48,48,94,94,94,0.00,40.00,1,1,0,0.00
2013-9-17,57,57,57,38,38,38,50,50,50,0.00,40.00,3,3,0,0.00
2013-9-18,35,35,35,33,33,33,92,92,92,0.00,40.00,0,0,0,0.00
2013-9-19,41,41,41,40,40,40,94,94,94,0.00,40.00,0,0,0,0.00
2013-9-20,43,43,43,41,41,41,94,94,94,0.00,40.00,0,0,0,0.00
2013-9-21,54,54,54,53,53,53,95,95,95,0.00,40.00,1,1,0,0.00
2013-9-22,69,69,69,67,67,67,93,93,93,0.00,40.00,5,5,0,0.00
2013-9-23,42,42,42,40,40,40,94,94,94,0.00,40.00,0,0,0,0.00
2013-9-24,37,37,37,35,35,35,93,93,93,0.00,40.00,1,1,0,0.00
2013-9-25,40,40,40,38,38,38,93,93,93,0.00,40.00,0,0,0,0.00
2013-9-26,52,52,52,50,50,50,91,91,91,0.00,40.00,0,0,0,0.00
2013-9-27,51,51,51,49,49,49,91,91,91,0.00,40.00,0,0,0,0.00
2013-9-28,41,41,41,40,40,40,94,94,94,0.00,40.00,1,1,0,0.00
2013-9-29,42,42,42,40,40,40,94,94,94,0.00,40.00,1,1,0,0.00
2013-9-30,50,50,50,49,49,49,94,94,94,0.00,40.00,0,0,0,0.00
2013-10-2,49,49,49,48,48,48,95,95,95,0.00,40.00,0,0,0,0.00
2013-10-3,49,49,49,48,48,48,95,95,95,0.00,40.00,0,0,0,0.00
2013-10-5,58,58,58,57,57,57,95,95,95,0.00,40.00,0,0,0,0.00
2013-10-6,60,59,59,58,57,56,96,93,91,0.00,40.00,1,1,0,0.00
2013-10-7,74,73,70,69,68,67,89,85,82,0.00,40.00,8,7,0,0.00
2013-10-8,52,52,52,49,49,49,91,91,91,0.00,40.00,1,1,0,0.00
2013-10-9,40,40,40,39,39,39,93,93,93,0.00,40.00,0,0,0,0.00
2013-10-10,48,48,48,45,45,45,91,91,91,0.00,40.00,0,0,0,0.00
2013-10-11,57,57,57,54,54,54,89,89,89,0.00,40.00,1,1,0,0.00
2013-10-12,53,53,53,45,45,45,75,75,75,0.00,40.00,1,1,0,0.00
2013-10-13,52,52,52,48,48,48,85,85,85,0.00,40.00,2,2,0,0.00
2013-10-14,33,33,33,31,31,31,92,92,92,0.00,40.00,1,1,0,0.00
2013-10-15,71,54,38,52,44,36,93,72,50,0.00,40.00,0,0,0,0.00
2013-10-16,49,49,49,48,48,48,95,95,95,0.00,40.00,0,0,0,0.00
2013-10-17,52,52,52,50,50,50,94,94,94,0.00,40.00,0,0,0,0.00
2013-10-18,63,63,63,61,61,61,93,93,93,0.00,40.00,4,4,0,0.00
2013-10-19,36,36,36,35,35,35,93,93,93,0.00,40.00,0,0,0,0.00
2013-10-20,49,49,49,47,47,47,94,94,94,0.00,40.00,0,0,0,0.00
2013-10-21,64,44,31,39,33,29,91,71,40,0.00,40.00,1,1,0,0.00
2013-10-22,53,53,53,48,48,48,84,84,84,0.00,40.00,0,0,0,0.00
2013-10-23,39,38,37,37,36,35,93,93,92,0.00,40.00,0,0,0,0.00
2013-10-24,34,34,34,31,31,31,92,92,92,0.00,40.00,1,1,0,0.00
2013-10-25,47,36,31,31,29,27,88,75,52,0.00,40.00,2,1,0,0.00
2013-10-26,25,25,25,22,22,22,89,89,89,0.00,40.00,0,0,0,0.00
2013-10-27,55,45,31,34,31,27,87,62,43,0.00,40.00,3,2,0,0.00
2013-10-28,59,42,26,35,29,23,90,65,40,0.00,40.00,2,2,0,0.00
2013-10-29,44,38,32,28,27,26,77,64,52,0.00,40.00,1,0,0,0.00
2013-10-30,51,40,33,41,33,28,86,78,68,0.00,40.00,1,0,0,0.00
2013-10-31,62,48,34,56,44,32,92,86,80,0.00,40.00,6,3,0,0.00
2013-11-1,63,62,60,57,-22,-100,81,72,62,0.00,40.00,7,6,0,0.00
2013-11-2,50,50,50,41,41,41,70,70,70,0.00,40.00,0,0,0,0.00
2013-11-3,47,46,45,39,14,-100,80,71,62,0.00,40.00,2,2,0,0.00
2013-11-4,44,36,28,19,-40,-100,46,41,36,0.00,40.00,2,2,0,0.00
2013-11-5,53,36,23,33,26,20,86,69,40,0.00,40.00,1,0,0,0.00
2013-11-6,33,33,33,30,30,30,89,89,89,0.00,40.00,0,0,0,0.00
2013-11-7,61,58,56,58,56,54,93,92,91,0.00,40.00,5,3,0,0.00
2013-11-8,30,30,30,28,28,28,92,92,92,0.00,40.00,0,0,0,0.00
2013-11-9,25,25,25,22,22,22,90,90,90,0.00,40.00,0,0,0,0.00
2013-11-10,40,39,38,36,36,36,90,88,87,0.00,40.00,1,1,0,0.00
2013-11-11,38,38,38,27,27,27,64,64,64,0.00,40.00,1,1,0,0.00
2013-11-12,49,49,49,36,36,36,60,60,60,0.00,40.00,1,1,0,0.00
2013-11-13,25,25,25,14,14,14,61,61,61,0.00,40.00,1,1,0,0.00
2013-11-14,22,22,22,16,16,16,77,77,77,0.00,40.00,0,0,0,0.00
2013-11-16,36,34,31,33,30,28,91,90,88,0.00,40.00,1,0,0,0.00
2013-11-17,31,31,31,29,29,29,92,92,92,0.00,40.00,0,0,0,0.00
2013-11-18,60,60,60,58,58,58,93,93,93,0.00,40.00,5,5,0,0.00
2013-11-20,29,29,29,16,16,16,59,59,59,0.00,40.00,2,2,0,0.00
2013-11-21,18,18,17,14,14,13,86,85,84,0.00,40.00,0,0,0,0.00
2013-11-22,37,37,37,31,31,31,79,79,79,0.00,40.00,0,0,0,0.00
2013-11-23,48,48,48,42,42,42,81,81,81,0.00,40.00,3,3,0,0.00
2013-11-24,26,24,22,4,-65,-100,39,32,24,0.00,40.00,7,6,0,0.00
2013-11-25,19,19,19,-100,-100,-100,29,29,29,0.00,40.00,4,4,0,0.00
2013-11-26,36,36,36,-100,-100,-100,35,35,35,0.00,40.00,1,1,0,0.00
2013-11-27,53,47,41,38,-31,-100,88,78,67,0.00,40.00,6,6,0,0.00
2013-11-28,30,30,30,14,14,14,50,50,50,0.00,40.00,7,7,0,0.00
2013-11-29,24,24,24,-100,-100,-100,39,39,39,0.00,40.00,1,1,0,0.00
2013-11-30,32,22,13,-100,-100,-100,58,45,32,0.00,40.00,1,0,0,0.00
2013-12-1,40,34,29,-100,-100,-100,69,65,61,0.00,40.00,0,0,0,0.00
2013-12-2,47,40,32,39,34,29,92,80,73,0.00,40.00,1,0,0,0.00
2013-12-3,50,37,28,38,32,26,92,82,63,0.00,40.00,2,1,0,0.00
2013-12-4,26,26,26,23,23,23,90,90,90,0.00,40.00,0,0,0,0.00
2013-12-5,52,42,33,30,-35,-100,90,76,63,0.00,40.00,0,0,0,0.00
2013-12-7,40,35,26,-100,-100,-100,58,47,40,0.00,40.00,4,3,0,0.00
2013-12-8,31,25,19,-100,-100,-100,56,46,36,0.00,40.00,1,0,0,0.00
2013-12-9,33,30,27,-100,-100,-100,63,60,56,0.00,40.00,2,2,0,0.00
2013-12-11,29,26,23,-100,-100,-100,58,54,47,0.00,40.00,1,0,0,0.00
2013-12-12,17,17,17,-100,-100,-100,58,58,58,0.00,40.00,1,1,0,0.00
2013-12-13,18,18,18,-100,-100,-100,52,52,52,0.00,40.00,0,0,0,0.00
2013-12-14,25,21,16,-100,-100,-100,58,47,31,0.00,40.00,2,2,0,0.00
2013-12-15,32,31,31,-100,-100,-100,61,56,48,0.00,40.00,4,3,0,0.00
2013-12-16,22,15,8,-100,-100,-100,65,60,54,0.00,40.00,0,0,0,0.00
2013-12-17,2,2,2,-100,-100,-100,55,55,55,0.00,40.00,1,1,0,0.00
2013-12-18,22,22,22,-100,-100,-100,54,54,54,0.00,40.00,2,2,0,0.00
2013-12-19,43,43,43,-100,-100,-100,24,24,24,0.00,40.00,2,2,0,0.00
2013-12-20,50,40,29,-100,-100,-100,57,43,29,0.00,40.00,1,0,0,0.00
2013-12-22,61,59,57,52,-49,-100,71,63,58,0.00,40.00,6,4,0,0.00
2013-12-23,56,46,40,43,-84,-100,68,63,60,0.00,40.00,2,1,0,0.00
2013-12-24,33,33,33,27,26,25,76,74,73,0.00,40.00,1,1,0,0.00
2013-12-25,21,21,21,-100,-100,-100,38,38,38,0.00,40.00,4,4,0,0.00
2013-12-26,24,24,24,10,10,10,55,55,55,0.00,40.00,0,0,0,0.00
2013-12-27,34,24,18,-100,-100,-100,66,54,36,0.00,40.00,4,2,0,0.00
2013-12-28,18,18,18,-100,-100,-100,61,61,61,0.00,40.00,1,1,0,0.00
2013-12-29,41,35,29,-100,-100,-100,63,60,57,0.00,40.00,2,2,0,0.00
2013-12-30,37,37,37,-100,-100,-100,42,42,42,0.00,40.00,4,4,0,0.00
2014-1-2,21,21,21,-100,-100,-100,59,59,59,0.00,40.00,1,1,0,0.00